Regional Weather Roundup
Issued by NWS

Home | Current Version | Previous Version | Text Only | Print | Product List | Glossary Off
Versions: 1 2 3 4 5 6 7 8 9 10 11 12 13 14 15 16 17 18 19 20 21 22 23 24 25 26 27 28 29 30 31 32 33 34 35 36 37 38 39 40 41 42 43 44 45 46 47 48 49 50

220
ASUS43 KTOP 232108
RWRKS

WEATHER ROUNDUP FOR KANSAS
NATIONAL WEATHER SERVICE GOODLAND KS
400 PM CDT FRI JUN 23 2017

NOTE:  "FAIR" INDICATES FEW OR NO CLOUDS BELOW 12,000 FEET WITH NO
SIGNIFICANT WEATHER AND/OR OBSTRUCTIONS TO VISIBILITY.

KSZ001>006-013>018-027>032-041>047-232200-
NORTHWEST KANSAS

CITY           SKY/WX    TMP DP  RH WIND       PRES   REMARKS
GOODLAND       CLOUDY    68  45  43 W5        30.18F
HAYS           MOSUNNY   75  48  38 VRB7      30.10F
HILL CITY      MOSUNNY   80  46  30 N9        30.10F
RUSSELL        SUNNY     78  47  33 N10       30.07F
$$

KSZ061>065-074>080-084>089-232200-
SOUTHWEST KANSAS

CITY           SKY/WX    TMP DP  RH WIND       PRES   REMARKS
DODGE CITY     PTSUNNY   73  47  39 N16       30.13S
ELKHART          N/A     70  45  40 NE13        N/A
GARDEN CITY    PTSUNNY   74  46  36 NE13G23   30.15F
GREAT BEND     CLOUDY    74  49  41 N12       30.10F
LIBERAL        MOSUNNY   75  50  41 NE16G26   30.14S
PRATT          CLOUDY    70  45  40 N15       30.09R
$$

KSZ066>073-081>083-090>101-232200-
SOUTHEAST KANSAS

CITY           SKY/WX    TMP DP  RH WIND       PRES   REMARKS
CHANUTE        SUNNY     86  53  32 N17G25    29.94R
COFFEYVILLE    SUNNY     89  57  33 N16       29.90R
HUTCHINSON     PTSUNNY   78  52  40 N9        30.05S
MEDICINE LODGE   N/A     79  50  36 N17       30.04R
NEWTON         CLOUDY    78  50  37 N14G26    30.04S
PARSONS        SUNNY     87  55  33 N14G23    29.94R
WICHITA INTL   LGT RAIN  78  55  44 N16       30.00F
WICHITA JABRA  CLOUDY    76  52  43 N12G20    30.01S
WICHITA MCCONL DRIZZLE   77  52  41 NE15      29.99F
WINFIELD       MOSUNNY   81  52  36 N18       29.98S
$$

KSZ007>012-019>026-033>040-048>060-102>105-232200-
NORTHEAST KANSAS

CITY           SKY/WX    TMP DP  RH WIND       PRES   REMARKS
CONCORDIA      SUNNY     79  47  32 N14G21    30.05S
EMPORIA        SUNNY     78  52  40 N13G18    29.99S
LAWRENCE       SUNNY     80  55  42 NW20      29.97R
MANHATTAN      PTSUNNY   81  50  33 N12G18    30.01S
MARYSVILLE     SUNNY     75  54  46 NW14G23   30.02S
OLATHE IND     SUNNY     79  55  43 NW16      29.97R
OLATHE EXE     SUNNY     80  51  36 N16       29.96R
SALINA         SUNNY     80  44  27 N10       30.04R
TOPEKA BILLARD SUNNY     78  54  43 N13       29.99R
TOPEKA FORBES  SUNNY     81  53  37 N14G21    29.99R
$$




USA.gov is the U.S. government's official web portal to all federal, state and local government web resources and services.